Weather in Balabanovo

Russia / Kaluga Oblast     55°10′38″N   36°39′24″E
temp.,
°C
wind,
m/s
gust,
m/s
humid.,
%
clouds,
%
prec.,
mm/h
press.,
hPa
HPBL,
m
28 january, thu
thu2800:00−5s1295100 0.0 100921
03:00−5ese1194100 0.0 100721
06:00−4ene2494100 0.0 1006142
09:00−3ene3797100 2.0 1005295
12:00−2ene3697100 2.2 1004261
15:00+1e24100100 3.4 1003141
18:00+1se4999100 0.6 1002345
21:00+1se51198100 1.2 1001426
29 january, fri
fri2900:000se4897100 0.5 1000323
03:000se51198100 1.2 998507
06:00+2se512100100 0.3 996514
09:00+1sse51298100 0.4 996855
12:00−1sse6118759 0.2 9941178
15:00−2se6129480 0.6 9921048
18:00−2s61295100 0.6 992853
21:00−4ssw41094100 0.8 993595
30 january, sat
sat3000:00−5s369699 0.3 993316
03:00−7s379797 0.4 994160
06:00−9ssw379776 0.0 993169
09:00−9ssw399679 0.1 994338
12:00−5sw51091100 0.2 995681
15:00−5sw51088100 0.3 996656
18:00−6ssw41091100 0.1 996723
21:00−6s3996100 0.2 997427
31 january, sun
sun3100:00−5sse2597100 0.3 995233
03:00−5e2597100 1.4 993247
06:00−5ene249797 0.3 991112
09:00−5ne239799 0.6 989100
12:00−3n4697100 2.3 987266
15:00−4nw61195100 5.4 988636
18:00−5wnw51289100 0.4 993664
21:00−7wsw5129296 0.4 999480
1 february, mon
mon100:00−8wsw41293100 0.1 1003584
03:00−8sw41094100 0.1 1005402
06:00−10sw3896100 0.1 1007218
09:00−10ssw2797100 0.1 1009202
12:00−7s2594100 0.0 1008265
15:00−6sse3593100 0.0 1006464
18:00−6e2596100 1.1 1004212
21:00−6nne2596100 2.6 1001206